TimePST,TemperatureF,Dew PointF,Humidity,Sea Level PressureIn,VisibilityMPH,Wind Direction,Wind SpeedMPH,Gust SpeedMPH,PrecipitationIn,Events,Conditions,WindDirDegrees,DateUTC
12:53 AM,48.9,41.0,74,30.07,10.0,East,4.6,-,N/A,,Clear,80,2013-02-26 08:53:00
1:53 AM,46.9,39.0,74,30.05,10.0,Calm,Calm,-,N/A,,Clear,0,2013-02-26 09:53:00
2:53 AM,46.0,39.0,76,30.03,10.0,Calm,Calm,-,N/A,,Clear,0,2013-02-26 10:53:00
3:53 AM,46.0,37.0,71,30.01,10.0,Calm,Calm,-,N/A,,Clear,0,2013-02-26 11:53:00
4:53 AM,44.1,36.0,73,30.02,10.0,Calm,Calm,-,N/A,,Clear,0,2013-02-26 12:53:00
5:53 AM,43.0,34.0,71,30.02,10.0,East,4.6,-,N/A,,Clear,90,2013-02-26 13:53:00
6:53 AM,45.0,34.0,65,30.02,10.0,East,4.6,-,N/A,,Clear,100,2013-02-26 14:53:00
7:53 AM,51.1,33.1,50,30.04,10.0,Calm,Calm,-,N/A,,Scattered Clouds,0,2013-02-26 15:53:00
8:53 AM,57.0,37.0,47,30.05,10.0,Calm,Calm,-,N/A,,Clear,0,2013-02-26 16:53:00
9:53 AM,61.0,39.9,46,30.05,10.0,Calm,Calm,-,N/A,,Clear,0,2013-02-26 17:53:00
10:53 AM,64.0,37.0,37,30.04,10.0,Calm,Calm,-,N/A,,Clear,0,2013-02-26 18:53:00
11:53 AM,69.1,30.0,23,30.01,10.0,Calm,Calm,-,N/A,,Clear,0,2013-02-26 19:53:00
12:53 PM,73.0,30.0,20,29.98,10.0,Variable,3.5,-,N/A,,Clear,0,2013-02-26 20:53:00
1:53 PM,72.0,46.0,40,29.97,10.0,SW,5.8,-,N/A,,Clear,230,2013-02-26 21:53:00
2:53 PM,70.0,43.0,38,29.98,10.0,South,9.2,-,N/A,,Clear,190,2013-02-26 22:53:00
3:53 PM,70.0,42.1,36,29.98,10.0,SSW,6.9,-,N/A,,Clear,200,2013-02-26 23:53:00
4:53 PM,66.0,45.0,47,29.99,10.0,South,4.6,-,N/A,,Clear,180,2013-02-27 00:53:00
5:53 PM,64.0,43.0,46,30.00,10.0,South,3.5,-,N/A,,Clear,190,2013-02-27 01:53:00
6:53 PM,62.1,45.0,53,30.03,10.0,Calm,Calm,-,N/A,,Clear,0,2013-02-27 02:53:00
7:53 PM,60.1,45.0,57,30.05,10.0,Calm,Calm,-,N/A,,Clear,0,2013-02-27 03:53:00
8:53 PM,57.9,44.1,60,30.06,10.0,East,3.5,-,N/A,,Clear,90,2013-02-27 04:53:00
9:53 PM,55.9,42.1,60,30.08,10.0,East,3.5,-,N/A,,Clear,80,2013-02-27 05:53:00
10:53 PM,53.1,42.1,66,30.09,10.0,Calm,Calm,-,N/A,,Clear,0,2013-02-27 06:53:00